Weather History for K1M4 - February, 2013

Change the Weather History Date:

Tuesday, February 5, 2013

  Actual Average (KMSL) Record (KMSL)
Temperature  
Mean Temperature 49 °F 43 °F  
Max Temperature 61 °F 53 °F 75 °F (2008)
Min Temperature 36 °F 33 °F 4 °F (1996)
Degree Days  
Heating Degree Days 16 22  
Month to date heating degree days 112  
Since 1 July heating degree days 2092  
Cooling Degree Days 0 0  
Month to date cooling degree days 0  
Year to date cooling degree days 0  
Moisture  
Dew Point 42 °F    
Average Humidity 81    
Maximum Humidity 100    
Minimum Humidity 59    
Precipitation  
Precipitation 0.00 in 0.16 in 4.68 in (2004)
Month to date precipitation 0.81  
Year to date precipitation 5.42  
Snow  
Snow 0.00 in - - ()
Month to date snowfall  
Since 1 July snowfall  
Snow Depth -    
Sea Level Pressure  
Sea Level Pressure 30.05 in    
Wind  
Wind Speed 4 mph (SW)    
Max Wind Speed 9 mph    
Max Gust Speed -    
Visibility 7 miles    
Events Fog , Rain    
T = Trace of Precipitation, MM = Missing Value Source: NWS Daily Summary

Daily Weather History Graph

Daily Weather History Graph

Search for Another Location

Airport or City:

Trip Planner

Search our weather history database for the weather conditions in past years. The results will help you decide how hot, cold, wet, or windy it might be!

Date:

Astronomy

Feb. 05, 2013 Rise Set
Actual Time 6:44 AM CST 5:24 PM CST
Civil Twilight 6:18 AM CST 5:50 PM CST
Nautical Twilight 5:48 AM CST 6:20 PM CST
Astronomical Twilight 5:19 AM CST 6:50 PM CST
Moon 2:21 AM CST (2/5) 12:46 PM CST (2/5)
Length of Visible Light 11h 32m
Length of Day
10h 40m
Waning Crescent, 26% of the Moon is Illuminated
Feb 5
Waning Crescent
Feb 10
New
Feb 17
First Quarter
Feb 25
Full
Mar 4
Last Quarter

Hourly Weather History & Observations

Time (CST) Temp. Windchill Dew Point Humidity Pressure Visibility Wind Dir Wind Speed Gust Speed Precip Events Conditions
12:10 AM 46.4 °F 42.9 °F 33.8 °F 62% 29.97 in 10.0 mi SSE 6.9 mph - N/A   Overcast
12:56 AM 45.9 °F 41.2 °F 32.9 °F 61% 30.01 in 10.0 mi SW 9.2 mph - N/A   Mostly Cloudy
1:56 AM 45.9 °F 42.9 °F 34.0 °F 63% 30.01 in 10.0 mi SW 5.8 mph - N/A   Overcast
2:56 AM 45.9 °F 44.6 °F 34.9 °F 66% 30.01 in 10.0 mi WSW 3.5 mph - N/A   Mostly Cloudy
3:29 AM 46.4 °F 45.2 °F 35.6 °F 66% 29.97 in 10.0 mi WNW 3.5 mph - N/A   Overcast
3:56 AM 45.0 °F 42.6 °F 36.0 °F 71% 30.01 in 10.0 mi South 4.6 mph - 0.00 in Rain Light Rain
4:56 AM 45.0 °F - 37.9 °F 76% 30.02 in 10.0 mi Calm Calm - 0.00 in   Overcast
5:56 AM 45.9 °F 44.6 °F 37.9 °F 74% 30.04 in 9.0 mi SSW 3.5 mph - 0.00 in Rain Light Rain
6:36 AM 44.6 °F 43.1 °F 39.2 °F 81% 30.01 in 8.0 mi SSW 3.5 mph - 0.00 in   Overcast
6:49 AM 44.6 °F 43.1 °F 41.0 °F 87% 30.01 in 10.0 mi SSW 3.5 mph - 0.00 in   Overcast
6:56 AM 43.9 °F - 41.0 °F 90% 30.05 in 10.0 mi Calm Calm - 0.00 in   Overcast
7:56 AM 45.0 °F - 41.9 °F 89% 30.06 in 10.0 mi Calm Calm - N/A   Overcast
8:56 AM 46.9 °F - 41.9 °F 83% 30.08 in 10.0 mi SSW 3.5 mph - N/A   Overcast
9:56 AM 50.9 °F - 43.0 °F 74% 30.09 in 10.0 mi NNW 4.6 mph - N/A   Overcast
10:56 AM 52.9 °F - 45.0 °F 74% 30.10 in 10.0 mi Variable 3.5 mph - N/A   Mostly Cloudy
11:13 AM 55.4 °F - 46.4 °F 72% 30.06 in 10.0 mi Variable 3.5 mph - N/A   Scattered Clouds
11:56 AM 56.8 °F - 45.9 °F 67% 30.07 in 10.0 mi WSW 4.6 mph - N/A   Partly Cloudy
12:56 PM 59.0 °F - 47.8 °F 66% 30.04 in 10.0 mi South 5.8 mph - N/A   Mostly Cloudy
1:12 PM 60.8 °F - 46.4 °F 59% 30.01 in 10.0 mi Variable 4.6 mph - N/A   Scattered Clouds
1:56 PM 61.0 °F - 47.8 °F 62% 30.04 in 10.0 mi SW 9.2 mph - N/A   Partly Cloudy
2:56 PM 61.9 °F - 48.9 °F 62% 30.03 in 10.0 mi SW 8.1 mph - N/A   Partly Cloudy
3:56 PM 61.0 °F - 48.9 °F 64% 30.03 in 10.0 mi South 8.1 mph - N/A   Clear
4:56 PM 57.9 °F - 48.9 °F 72% 30.04 in 10.0 mi SSW 4.6 mph - N/A   Clear
5:56 PM 54.0 °F - 47.8 °F 80% 30.06 in 10.0 mi Calm Calm - N/A   Partly Cloudy
6:56 PM 50.0 °F - 46.9 °F 89% 30.07 in 10.0 mi Calm Calm - N/A   Clear
7:56 PM 48.9 °F - 46.9 °F 93% 30.09 in 10.0 mi SW 3.5 mph - N/A   Clear
8:56 PM 45.9 °F - 45.0 °F 97% 30.11 in 5.0 mi Calm Calm - N/A   Clear
9:16 PM 44.6 °F - 44.6 °F 100% 30.07 in 1.2 mi Calm Calm - N/A   Clear
9:19 PM 46.4 °F - 46.4 °F 100% 30.08 in 0.5 mi Calm Calm - N/A Fog Fog
9:29 PM 44.6 °F - 44.6 °F 100% 30.08 in 1.2 mi Calm Calm - N/A   Clear
9:32 PM 44.6 °F - 44.6 °F 100% 30.08 in 0.8 mi Calm Calm - N/A   Clear
9:35 PM 44.6 °F - 44.6 °F 100% 30.08 in 0.2 mi Calm Calm - N/A Fog Fog
9:56 PM 41.9 °F - 41.9 °F 100% 30.12 in 0.2 mi Calm Calm - N/A Fog Fog
10:05 PM 42.8 °F - 42.8 °F 100% 30.08 in 0.2 mi Calm Calm - N/A Fog Fog
10:56 PM 38.8 °F - 38.8 °F 100% 30.12 in 0.2 mi Calm Calm - N/A Fog Fog
11:23 PM 37.4 °F - 37.4 °F 100% 30.08 in 0.2 mi Calm Calm - N/A Fog Fog
11:56 PM 36.9 °F - 36.9 °F 100% 30.12 in 0.2 mi Calm Calm - N/A Fog Fog